Regional Weather Roundup
Issued by NWS

Home | Current Version | Previous Version | Text Only | Print | Product List | Glossary On
Versions: 1 2 3 4 5 6 7 8 9 10 11 12 13 14 15 16 17 18 19 20 21 22 23 24 25 26 27 28 29 30 31 32 33 34 35 36 37 38 39 40 41 42 43 44 45 46 47 48 49 50
000
ASUS45 KPSR 132010
RWRAZ

ARIZONA HOURLY REGIONAL WEATHER ROUNDUP
NATIONAL WEATHER SERVICE PHOENIX AZ
100 PM MST SAT FEB 13 2016

NOTE: FAIR INDICATES FEW OR NO CLOUDS BELOW 12,000 FEET WITH NO
SIGNIFICANT WEATHER AND/OR OBSTRUCTIONS TO VISIBILITY.

AZZ001>003-036-132100-
NORTHWEST ARIZONA

CITY           SKY/WX    TMP DP  RH WIND       PRES   REMARKS
BULLHEAD CITY  SUNNY     75  28  17 N18G24    30.07F
KINGMAN        SUNNY     70  22  16 N8        30.17F
$$

AZZ004>008-015-016-018-132100-
NORTH CENTRAL ARIZONA

CITY           SKY/WX    TMP DP  RH WIND       PRES   REMARKS
GRAND CANYON   SUNNY     62   7  11 SW10G18   30.27F
WILLIAMS       SUNNY     63  10  13 SW8       30.32F
PRESCOTT       SUNNY     69  16  13 N6        30.20F
FLAGSTAFF      SUNNY     61   8  12 W8        30.28F
PAYSON         SUNNY     68  19  15 VRB6      30.22F
PAGE           SUNNY     52  32  46 CALM      30.21F
$$

AZZ009>014-017-132100-
NORTHEAST ARIZONA

CITY           SKY/WX    TMP DP  RH WIND       PRES   REMARKS
WINSLOW        SUNNY     65  19  17 CALM      30.20F
SAINT JOHNS    SUNNY     69  10  10 N13G18    30.19F
WINDOW ROCK    SUNNY     63   0   8 W8        30.24F
SHOW LOW       SUNNY     64   7  10 W15       30.26F
$$

AZZ023-132100-
GREATER PHOENIX AREA

CITY           SKY/WX    TMP DP  RH WIND       PRES   REMARKS
PHOENIX        MOSUNNY   81  25  12 E5        30.03F
BUCKEYE        SUNNY     73  32  21 CALM      30.07F
GLENDALE       MOSUNNY   75  32  20 VRB3      30.06F
LUKE AFB       SUNNY     77  30  17 S5        30.03F
DEER VALLEY    SUNNY     77  28  16 VRB6      30.04F
SCOTTSDALE     SUNNY     78  28  16 VRB3      30.06F
MESA-FALCON    MOSUNNY  N/A N/A N/A VRB5      30.05F
MESA-GATEWAY   MOSUNNY   75  28  17 W7        30.07F
CHANDLER       SUNNY     75  30  19 S7        30.05F
$$

AZZ027-028-132100-
SOUTHWEST MARICOPA COUNTY AND PINAL COUNTY

CITY           SKY/WX    TMP DP  RH WIND       PRES   REMARKS
CASA GRANDE    SUNNY     75  28  17 CALM      30.07F
GILA BEND      MOSUNNY   76  34  22 VRB3      30.03F
$$

AZZ503-504-507>509-132100-
SOUTHEAST ARIZONA

CITY           SKY/WX    TMP DP  RH WIND       PRES   REMARKS
TUCSON         SUNNY     81  16   9 N6        30.09F
DAVIS-MONTHAN  SUNNY     79  19  11 N5        30.07F
NOGALES        SUNNY     82  15   8 VRB6      30.11F
SIERRA VISTA   SUNNY     77  11   8 VRB1      30.17F
DOUGLAS        SUNNY     76  10   8 S7        30.15F
SAFFORD        SUNNY     73  17  12 S5        30.13F
$$

AZZ020-021-025-026-031-132100-
SOUTHWEST ARIZONA

CITY           SKY/WX    TMP DP  RH WIND       PRES   REMARKS
YUMA           SUNNY     82  28  14 N12       30.03F
$$

CAZ031-033-041-043-047-048-061-132100-
SOUTHERN CALIFORNIA

CITY           SKY/WX    TMP DP  RH WIND       PRES   REMARKS
DOWNTOWN L.A.  MOSUNNY   75  52  44 CALM      30.04F HAZE
L.A. AIRPORT   MOSUNNY   61  53  75 W7        30.06F HAZE
SAN DIEGO      PTSUNNY   71  52  50 NW7       30.07F
BURBANK        MOSUNNY   75  34  22 SE7       30.05F
ONTARIO        MOSUNNY   76  27  16 S3        30.06F
RIVERSIDE      MOSUNNY   76  30  18 W3        30.06F
PALM SPRINGS   MOSUNNY   81  25  12 E3        30.04F
EL CENTRO NAS  MOSUNNY   82  22  11 E3        30.04F
IMPERIAL       SUNNY     84  28  13 VRB3      30.01F
BLYTHE         SUNNY     74  30  19 VRB3      30.06F
NEEDLES        SUNNY     75  27  17 CALM      30.08F
$$

NVZ020-UTZ003-132100-
SOUTHERN NEVADA-UTAH

CITY           SKY/WX    TMP DP  RH WIND       PRES   REMARKS
LAS VEGAS      PTSUNNY   69  22  16 VRB3      30.12F
SALT LAKE CITY CLOUDY    31  28  89 NW8       30.34S FOG     WCI  23
$$

NMZ009-TXZ055-132100-
NEW MEXICO-WEST TEXAS

CITY           SKY/WX    TMP DP  RH WIND       PRES   REMARKS
ALBUQUERQUE    SUNNY     62  14  15 SW7       30.20F
EL PASO        MOSUNNY   69  12  11 S6        30.16F
$$


........................KEY........................
SKY/WX - SKY CONDITION/WEATHER
TMP    - TEMPERATURE IN FAHRENHEIT
DP     - DEW POINT IN FAHRENHEIT
RH     - RELATIVE HUMIDITY IN PERCENT
WIND   - DIRECTION AND SPEED IN MILES PER HOUR (MPH)
VRB    - VARIABLE WIND DIRECTION
PRES   - MEAN SEA LEVEL PRESSURE IN INCHES OF MERCURY
         F - FALLING PRESSURE   R - RISING PRESSURE
         S - STEADY PRESSURE
VSB    - VISIBILITY IN MILES
HX     - HEAT INDEX IN FAHRENHEIT
WCI    - WIND CHILL INDEX IN FAHRENHEIT
TC     - TEMPERATURE IN CELSIUS WHICH IS ALSO KNOWN AS
         TEMPERATURE IN CENTIGRADE
AFB    - AIR FORCE BASE
         LUKE AFB IS LUKE AIR FORCE BASE
         DAVIS-MONTHAN IS DAVIS-MONTHAN AIR FORCE BASE
NAS    - NAVAL AIR STATION
         EL CENTRO NAS IS EL CENTRO NAVAL AIR STATION
N/A    - NOT AVAILABLE




USA.gov is the U.S. government's official web portal to all federal, state and local government web resources and services.